Flag for Germany Weather past 2 weeks in Kiel, Schleswig-Holstein, Germany

Now
77 °F

Sunny.


Feels Like: 79 °F
Forecast: 62 / 78 °F
Wind: 14 mph from East

Location: Kiel / Holtenau Civilian

Current Time: Jul 23, 2014 at 2:14:25 AM

Latest Report: Jul 22, 2014 at 5:50 PM


Visibility: 10 mi

Pressure: 30.15 "Hg

Humidity: 51%

Dew point: 57 °F

Location of KielLocation

Historic Weather in Kiel — Graph

°F

Kiel temperature yesterday

Maximum temperature yesterday: 77 °F (at 1:50 PM)
Minimum temperature yesterday: 70 °F (at 7:50 AM)
Average temperature yesterday: 74 °F

Past Weeks' High & Low Weather Summary

 TemperatureHumidityPressure
High84 °F (Jul 19, 1:50 PM)94% (Jul 8, 10:50 AM)30.21 "Hg (Jul 8, 10:50 AM)
Low59 °F (Jul 13, 8:20 AM)39% (Jul 19, 6:20 PM)29.62 "Hg (Jul 13, 7:50 PM)
Average70 °F66%29.96 "Hg
* Reported Jul 7 5:20 PM — Jul 22 5:50 PM, Kiel, Weather by CustomWeather, © 2014

Note: Actual official high and low records may vary slightly from our data, if they occured in-between our weather recording intervals... More about our weather records

Advertising

Kiel weather history for previous 24 hours

 ConditionsComfort  
Time TempWeatherWind HumidityBarometerVisibility
5:50 PM
Jul 22
77 °FSunny.14 mph51%30.15 "Hg10 mi
5:20 PM75 °FSunny.14 mph65%30.15 "Hg10 mi
4:50 PM77 °FSunny.12 mph65%30.15 "Hg10 mi
4:20 PM77 °FSunny.14 mph61%30.15 "Hg10 mi
3:50 PM75 °FSunny.14 mph61%30.15 "Hg10 mi
3:20 PM77 °FSunny.14 mph57%30.15 "Hg10 mi
2:50 PM75 °FSunny.14 mph57%30.15 "Hg10 mi
2:20 PM77 °FSunny.15 mph54%30.15 "Hg10 mi
1:50 PM77 °FSunny.14 mph54%30.15 "Hg10 mi
1:20 PM75 °FSunny.15 mph50%30.15 "Hg10 mi
12:50 PM75 °FSunny.15 mph54%30.15 "Hg10 mi
12:20 PM73 °FSunny.15 mph57%30.15 "Hg10 mi
11:50 AM73 °FPassing clouds.17 mph61%30.15 "HgN/A
11:20 AM72 °FSunny.14 mph61%30.15 "Hg10 mi
10:50 AM73 °FSunny.15 mph65%30.12 "Hg10 mi
10:20 AM72 °FPassing clouds.15 mph69%30.12 "HgN/A
9:50 AM70 °FSunny.16 mph73%30.12 "Hg10 mi
9:20 AM72 °FSunny.14 mph69%30.12 "Hg10 mi
8:50 AM70 °FSunny.16 mph73%30.12 "Hg10 mi
8:20 AM70 °FSunny.15 mph78%30.12 "Hg10 mi
7:50 AM70 °FSunny.12 mph78%30.12 "Hg10 mi
Weather by CustomWeather, © 2014

See weather overviewHow to use our weather pages